Weather History for KH21 - March, 2014

Change the Weather History Date:

Sunday, March 9, 2014

  Actual Average (KAIZ) Record (KAIZ)
Temperature  
Mean Temperature 42 °F -  
Max Temperature 55 °F 51 °F 69 °F (2013)
Min Temperature 28 °F 31 °F 15 °F (2003)
Degree Days  
Heating Degree Days 24    
Moisture  
Dew Point 31 °F    
Average Humidity 69    
Maximum Humidity 100    
Minimum Humidity 38    
Precipitation  
Precipitation 0.00 in - - ()
Sea Level Pressure  
Sea Level Pressure 30.20 in    
Wind  
Wind Speed 4 mph (SSW)    
Max Wind Speed 15 mph    
Max Gust Speed 21 mph    
Visibility 7 miles    
Events      
Averages and records for this station are not official NWS values.
T = Trace of Precipitation, MM = Missing Value Source: NWS Daily Summary

Daily Weather History Graph

Daily Weather History Graph

Search for Another Location

Airport or City:

Trip Planner

Search our weather history database for the weather conditions in past years. The results will help you decide how hot, cold, wet, or windy it might be!

Date:

Astronomy

Mar. 09, 2014 Rise Set
Actual Time 7:30 AM CDT 7:12 PM CDT
Civil Twilight 7:04 AM CDT 7:38 PM CDT
Nautical Twilight 6:34 AM CDT 8:08 PM CDT
Astronomical Twilight 6:03 AM CDT 8:39 PM CDT
Moon 1:09 PM CDT (3/9) 3:52 AM CDT (3/9)
Length of Visible Light 12h 33m
Length of Day
11h 41m
First Quarter, 61% of the Moon is Illuminated
Mar 9
First Quarter
Mar 16
Full
Mar 23
Last Quarter
Mar 30
New
Apr 7
First Quarter

Hourly Weather History & Observations

Time (CDT) Temp. Windchill Dew Point Humidity Pressure Visibility Wind Dir Wind Speed Gust Speed Precip Events Conditions
12:15 AM 33.8 °F - 30.2 °F 87% 30.29 in 5.0 mi Calm Calm - N/A   Haze
12:35 AM 33.8 °F - 30.2 °F 87% 30.29 in 5.0 mi Calm Calm - N/A   Overcast
12:55 AM 33.8 °F - 30.2 °F 87% 30.31 in 5.0 mi Calm Calm - N/A   Overcast
1:15 AM 33.8 °F - 30.2 °F 87% 30.31 in 5.0 mi Calm Calm - N/A   Haze
1:35 AM 33.8 °F - 30.2 °F 87% 30.32 in 7.0 mi Calm Calm - N/A   Overcast
1:55 AM 33.8 °F 30.8 °F 30.2 °F 87% 30.31 in 7.0 mi NNW 3.5 mph - N/A   Overcast
3:15 AM 32.0 °F - 30.2 °F 93% 30.31 in 5.0 mi Calm Calm - N/A   Overcast
3:35 AM 32.0 °F - 30.2 °F 93% 30.31 in 5.0 mi Calm Calm - N/A   Overcast
3:55 AM 32.0 °F - 30.2 °F 93% 30.29 in 5.0 mi Calm Calm - N/A   Overcast
4:15 AM 32.0 °F - 30.2 °F 93% 30.29 in 5.0 mi Calm Calm - N/A   Scattered Clouds
4:35 AM 32.0 °F - 30.2 °F 93% 30.29 in 5.0 mi Calm Calm - N/A   Clear
4:55 AM 32.0 °F - 30.2 °F 93% 30.30 in 5.0 mi Calm Calm - N/A   Mostly Cloudy
5:15 AM 32.0 °F - 30.2 °F 93% 30.30 in 5.0 mi Calm Calm - N/A   Mostly Cloudy
5:35 AM 32.0 °F - 28.4 °F 87% 30.30 in 5.0 mi Calm Calm - N/A   Clear
5:55 AM 30.2 °F - 28.4 °F 93% 30.31 in 4.0 mi Calm Calm - N/A   Clear
6:15 AM 30.2 °F - 28.4 °F 93% 30.30 in 5.0 mi Calm Calm - N/A   Clear
6:35 AM 28.4 °F 23.3 °F 28.4 °F 100% 30.29 in 4.0 mi SSE 4.6 mph - N/A   Clear
6:55 AM 28.4 °F 22.2 °F 26.6 °F 93% 30.29 in 3.0 mi SSE 5.8 mph - N/A   Clear
7:15 AM 30.2 °F 24.3 °F 28.4 °F 93% 30.29 in 5.0 mi SSE 5.8 mph - N/A   Clear
7:35 AM 30.2 °F 26.7 °F 28.4 °F 93% 30.29 in 5.0 mi South 3.5 mph - N/A   Clear
7:55 AM 30.2 °F - 28.4 °F 93% 30.31 in 5.0 mi Calm Calm - N/A   Clear
8:15 AM 30.2 °F - 28.4 °F 93% 30.31 in 5.0 mi Calm Calm - N/A   Clear
8:35 AM 32.0 °F - 30.2 °F 93% 30.31 in 3.0 mi Calm Calm - N/A   Clear
8:55 AM 32.0 °F - 30.2 °F 93% 30.32 in 3.0 mi Calm Calm - N/A   Clear
9:15 AM 32.0 °F - 30.2 °F 93% 30.31 in 3.0 mi Calm Calm - N/A   Clear
9:35 AM 33.8 °F 27.0 °F 32.0 °F 93% 30.31 in 4.0 mi South 8.1 mph - N/A   Clear
9:55 AM 33.8 °F 27.0 °F 32.0 °F 93% 30.30 in 4.0 mi South 8.1 mph - N/A   Clear
10:15 AM 35.6 °F 30.7 °F 32.0 °F 87% 30.31 in 4.0 mi SSW 5.8 mph - N/A   Scattered Clouds
10:35 AM 35.6 °F 30.7 °F 32.0 °F 87% 30.31 in 4.0 mi SSW 5.8 mph - N/A   Haze
10:55 AM 37.4 °F 30.8 °F 33.8 °F 87% 30.31 in 4.0 mi SSW 9.2 mph - N/A   Haze
11:15 AM 37.4 °F 32.8 °F 32.0 °F 81% 30.30 in 4.0 mi SSW 5.8 mph - N/A   Haze
11:35 AM 37.4 °F 33.8 °F 32.0 °F 81% 30.30 in 5.0 mi SE 4.6 mph - N/A   Haze
11:55 AM 41.0 °F 36.4 °F 32.0 °F 70% 30.28 in 5.0 mi South 6.9 mph - N/A   Haze
12:15 PM 41.0 °F 38.0 °F 32.0 °F 70% 30.28 in 5.0 mi SSW 4.6 mph - N/A   Haze
12:35 PM 42.8 °F 41.1 °F 32.0 °F 66% 30.27 in 7.0 mi SSW 3.5 mph - N/A   Clear
12:55 PM 44.6 °F 40.7 °F 32.0 °F 61% 30.26 in 7.0 mi SSW 6.9 mph - N/A   Clear
1:15 PM 46.4 °F 42.4 °F 32.0 °F 57% 30.24 in 7.0 mi SSW 8.1 mph - N/A   Clear
1:35 PM 48.2 °F - 32.0 °F 54% 30.23 in 10.0 mi SW 6.9 mph - N/A   Clear
1:55 PM 50.0 °F - 30.2 °F 47% 30.21 in 10.0 mi SW 9.2 mph - N/A   Clear
2:15 PM 51.8 °F - 32.0 °F 47% 30.19 in 10.0 mi South 6.9 mph - N/A   Clear
2:35 PM 51.8 °F - 30.2 °F 44% 30.18 in 10.0 mi SW 6.9 mph - N/A   Clear
2:55 PM 53.6 °F - 30.2 °F 41% 30.17 in 10.0 mi SW 5.8 mph - N/A   Clear
3:15 PM 53.6 °F - 30.2 °F 41% 30.16 in 10.0 mi WSW 11.5 mph - N/A   Clear
3:35 PM 55.4 °F - 30.2 °F 38% 30.15 in 10.0 mi WSW 12.7 mph 18.4 mph N/A   Clear
3:55 PM 55.4 °F - 30.2 °F 38% 30.13 in 10.0 mi SW 11.5 mph 16.1 mph N/A   Clear
4:15 PM 55.4 °F - 30.2 °F 38% 30.12 in 10.0 mi SSW 11.5 mph - N/A   Clear
4:35 PM 55.4 °F - 30.2 °F 38% 30.11 in 10.0 mi SW 9.2 mph 18.4 mph N/A   Clear
4:55 PM 55.4 °F - 30.2 °F 38% 30.10 in 10.0 mi SW 11.5 mph 18.4 mph N/A   Clear
5:15 PM 55.4 °F - 30.2 °F 38% 30.08 in 10.0 mi SW 15.0 mph 20.7 mph N/A   Clear
5:35 PM 55.4 °F - 32.0 °F 41% 30.09 in 10.0 mi WSW 10.4 mph - N/A   Clear
5:55 PM 55.4 °F - 32.0 °F 41% 30.08 in 10.0 mi SSW 11.5 mph - N/A   Clear
6:15 PM 55.4 °F - 30.2 °F 38% 30.07 in 10.0 mi SSW 12.7 mph - N/A   Clear
6:35 PM 53.6 °F - 32.0 °F 44% 30.07 in 10.0 mi SSW 6.9 mph - N/A   Clear
6:55 PM 53.6 °F - 32.0 °F 44% 30.07 in 10.0 mi SW 9.2 mph - N/A   Clear
7:15 PM 51.8 °F - 30.2 °F 44% 30.07 in 10.0 mi SSW 8.1 mph - N/A   Clear
7:35 PM 50.0 °F - 30.2 °F 47% 30.06 in 10.0 mi South 6.9 mph - N/A   Clear
7:55 PM 50.0 °F - 30.2 °F 47% 30.06 in 10.0 mi SSW 4.6 mph - N/A   Clear
8:15 PM 50.0 °F - 30.2 °F 47% 30.06 in 10.0 mi South 4.6 mph - N/A   Clear
8:35 PM 48.2 °F - 30.2 °F 50% 30.07 in 10.0 mi South 5.8 mph - N/A   Clear
8:55 PM 48.2 °F - 28.4 °F 46% 30.06 in 10.0 mi South 5.8 mph - N/A   Clear
9:15 PM 46.4 °F 43.5 °F 28.4 °F 50% 30.06 in 10.0 mi South 5.8 mph - N/A   Clear
9:35 PM 46.4 °F 43.5 °F 30.2 °F 53% 30.07 in 10.0 mi South 5.8 mph - N/A   Clear
9:55 PM 46.4 °F 43.5 °F 32.0 °F 57% 30.06 in 10.0 mi South 5.8 mph - N/A   Clear
10:15 PM 46.4 °F 42.9 °F 32.0 °F 57% 30.06 in 10.0 mi SSW 6.9 mph - N/A   Clear
10:30 PM 46.4 °F 41.9 °F 32.0 °F 57% 30.05 in 10.0 mi SSW 9.2 mph - N/A   Clear
10:55 PM 46.4 °F 41.5 °F 35.6 °F 66% 30.05 in 10.0 mi SW 10.4 mph - N/A   Clear
11:15 PM 46.4 °F 41.5 °F 35.6 °F 66% 30.05 in 10.0 mi SW 10.4 mph - N/A   Clear
11:35 PM 46.4 °F 41.9 °F 35.6 °F 66% 30.04 in 10.0 mi SW 9.2 mph - N/A   Clear
11:55 PM 46.4 °F 40.4 °F 37.4 °F 71% 30.03 in 10.0 mi SW 13.8 mph 18.4 mph N/A   Clear
12:15 AM 46.4 °F 40.7 °F 37.4 °F 71% 30.03 in 10.0 mi SW 12.7 mph 18.4 mph N/A   Clear
12:35 AM 46.4 °F 40.4 °F 37.4 °F 71% 30.03 in 10.0 mi SW 13.8 mph 19.6 mph N/A   Clear
12:55 AM 44.6 °F 39.2 °F 37.4 °F 76% 30.02 in 10.0 mi SSW 10.4 mph - N/A   Clear